Location: Ajisawe
(8.4333°N, 4.3833°E)
Time: 21:31:09
(UTC+00:00)

Vanguard 2 Rocket - Pass Details

Date: 20 April 2021
Orbit: 554 x 3326 km, 32.9° (Epoch: 16 May)

Event Time Altitude Azimuth Distance (km) Brightness Sun altitude
Rises 09:58:53 0° 232° (SW) 4,719 10.3 64.6°
Reaches altitude 10° 10:01:28 10° 231° (SW) 4,025 10.1 65.2°
Maximum altitude 10:13:11 83° 143° (SE) 2,523 10.9 68.1°
Drops below altitude 10° 10:32:26 10° 57° (ENE) 6,207 11.5 72.7°
Sets 10:37:32 0° 57° (ENE) 7,306 11.7 74.0°
